User: anonymous   Login
Location: ????????
(37.9452°N, 23.1472°E)
Time: 01:17:01
(UTC+00:00)
Language:

DELTA 2 DEB (DPAF) - Orbit

View from above orbital plane
View from above orbital plane
View from above satellite
View from above satellite

Ground track
Ground track

The orbit data is extracted from the following two-line orbital elements,

1 29110U 06016D   24174.57358697  .00007812  00000-0  81123-3 0  9990
2 29110  98.4100  26.6247 0002219 207.8764 212.8388 14.90236908974556
Epoch (UTC): 22 June 2024 13:45:57
Eccentricity: 0.0002219
inclination: 98.4100°
perigee height: 595 km
apogee height: 599 km
right ascension of ascending node: 26.6247°
argument of perigee: 207.8764°
revolutions per day: 14.90236908
mean anomaly at epoch: 212.8388°
orbit number at epoch: 97455

The dashed part of the orbit path shows where the satellite is in the earth's shadow,  

DLR